Location: Unspecified
(0.0000°N, 0.0000°E)
Time: 03:06:34
(UTC+00:00)

Vanguard 1 - Pass Details

Date: 16 December 2023
Orbit: 653 x 3826 km, 34.3° (Epoch: 22 February)

Event Time Altitude Azimuth Distance (km) Brightness Sun altitude
Rises 11:09:30 0° 234° (SW) 2,975 12.6 64.1°
Reaches altitude 10° 11:11:42 10° 234° (SW) 2,050 11.9 64.4°
Maximum altitude 11:16:07 88° 323° (NW) 719 10.8 64.8°
Drops below altitude 10° 11:21:53 10° 53° (NE) 2,653 12.3 65.3°
Sets 11:25:05 0° 53° (NE) 3,953 13.1 65.5°
